W5SDC Weather Reports


Display with metric or nautical units.
time (UTC)temp
F
wind
direction
speed
MPH
gust
MPH
rain 1hr
in
rain 24hr
in
rain mn
in
humidity
%
barometer
mb
20260509091521 72 288 0.0 2.0 0.00 0.00 0.00 99 1011.3
20260509091048 72 30 1.0 2.0 0.00 0.00 0.00 99 1011.3
20260509090516 72 348 1.0 4.0 0.00 0.00 0.00 99 1011.3
20260509090023 72 24 2.0 3.0 0.00 0.00 0.00 99 1011.7
20260509085529 72 44 1.0 3.0 0.00 0.00 0.00 99 1011.7
20260509085018 72 348 1.0 3.0 0.00 0.00 0.00 99 1011.7
20260509084524 72 359 3.0 4.0 0.00 0.00 0.00 99 1011.7
20260509084031 72 323 2.0 3.0 0.00 0.00 0.00 99 1011.7
20260509083519 72 332 1.0 3.0 0.00 0.00 0.00 99 1011.9
20260509083026 72 0.0 0.0 0.00 0.00 0.00 99 1011.9
20260509082532 72 338 0.0 2.0 0.00 0.00 0.00 99 1011.9
20260509082020 72 321 1.0 3.0 0.00 0.00 0.00 99 1011.9
20260509081527 72 320 2.0 3.0 0.00 0.00 0.00 99 1012.0
20260509081036 72 312 1.0 2.0 0.00 0.00 0.00 99 1012.2
20260509080522 72 0.0 0.0 0.00 0.00 0.00 99 1012.2
20260509080029 72 0.0 0.0 0.00 0.00 0.00 99 1012.2
20260509075517 72 132 1.0 3.0 0.00 0.00 0.00 99 1012.2
20260509075044 72 131 1.0 2.0 0.00 0.00 0.00 99 1012.0
20260509074531 72 69 0.0 2.0 0.00 0.00 0.00 99 1011.9
20260509074018 72 356 1.0 3.0 0.00 0.00 0.00 99 1012.0
20260509073525 72 0.0 0.0 0.00 0.00 0.00 99 1012.2
20260509073052 72 0.0 0.0 0.00 0.00 0.00 99 1012.2
20260509072520 72 0.0 0.0 0.00 0.00 0.00 99 1012.3
20260509072027 72 0.0 0.0 0.00 0.00 0.00 99 1012.4
20260509071535 72 0.0 0.0 0.00 0.00 0.00 99 1012.4
20260509071022 72 0.0 0.0 0.00 0.00 0.00 99 1012.4
20260509070528 72 0.0 0.0 0.00 0.00 0.00 99 1012.4
20260509070017 72 0.0 0.0 0.00 0.00 0.00 99 1012.2
20260509065523 72 0.0 0.0 0.00 0.00 0.00 99 1012.2
20260509065030 72 270 0.0 1.0 0.00 0.00 0.00 99 1012.2
20260509064518 72 274 2.0 4.0 0.00 0.00 0.00 99 1012.2
20260509064025 72 335 1.0 3.0 0.00 0.00 0.00 99 1012.2
20260509063531 72 0.0 0.0 0.00 0.00 0.00 99 1012.2
20260509063020 72 0.0 0.0 0.00 0.00 0.00 99 1012.2
20260509062526 72 284 1.0 2.0 0.00 0.00 0.00 99 1012.1
20260509062033 72 203 1.0 3.0 0.00 0.00 0.00 99 1012.0
20260509061521 72 199 0.0 3.0 0.00 0.00 0.00 99 1011.9
20260509061028 72 145 1.0 3.0 0.00 0.00 0.00 99 1011.7
20260509060516 72 168 3.0 5.0 0.00 0.00 0.00 99 1011.7
20260509060023 72 186 4.0 6.0 0.00 0.00 0.00 99 1011.7
20260509055529 72 179 4.0 5.0 0.00 0.00 0.00 99 1011.7
20260509055018 72 192 5.0 7.0 0.00 0.00 0.00 99 1011.7
20260509054524 72 197 2.0 4.0 0.00 0.00 0.00 99 1011.7
20260509054031 71 211 2.0 4.0 0.00 0.00 0.00 99 1011.5
20260509053519 71 190 3.0 4.0 0.00 0.00 0.00 99 1010.8
20260509053046 71 202 3.0 5.0 0.00 0.00 0.00 99 1010.8
20260509052532 71 171 3.0 5.0 0.00 0.00 0.00 99 1010.7
20260509052041 71 159 4.0 7.0 0.00 0.00 0.00 99 1010.6
20260509051527 71 137 4.0 6.0 0.00 0.00 0.00 99 1010.6
20260509051016 71 160 4.0 5.0 0.00 0.00 0.00 99 1010.7
20260509050522 71 161 3.0 5.0 0.00 0.00 0.00 99 1010.7
20260509050029 71 148 3.0 4.0 0.00 0.00 0.00 99 1010.7
20260509045537 71 168 3.0 5.0 0.00 0.00 0.00 99 1010.7
20260509045024 71 156 3.0 4.0 0.00 0.00 0.00 99 1010.9
20260509044530 71 173 1.0 2.0 0.00 0.00 0.00 99 1011.0
20260509044019 71 158 0.0 2.0 0.00 0.00 0.00 99 1011.1
20260509043525 71 0.0 0.0 0.00 0.00 0.00 98 1011.2
20260509043032 71 173 1.0 3.0 0.00 0.00 0.00 98 1011.2
20260509042540 72 173 1.0 3.0 0.00 0.00 0.00 97 1011.3
20260509042027 72 186 2.0 4.0 0.00 0.00 0.00 97 1011.3
20260509041534 72 141 3.0 3.0 0.00 0.00 0.00 97 1011.4
20260509041022 72 172 2.0 3.0 0.00 0.00 0.00 97 1011.4
20260509040528 72 170 3.0 4.0 0.00 0.00 0.00 96 1011.4
20260509040037 72 184 2.0 5.0 0.00 0.00 0.00 96 1011.3
20260509035523 72 179 3.0 4.0 0.00 0.00 0.00 96 1011.3
20260509035050 72 184 1.0 4.0 0.00 0.00 0.00 96 1011.2
20260509034538 72 162 1.0 3.0 0.00 0.00 0.00 96 1011.1
20260509034025 72 169 3.0 5.0 0.00 0.00 0.00 96 1011.1
20260509033531 72 182 3.0 5.0 0.00 0.00 0.00 96 1010.9
20260509033019 73 154 3.0 5.0 0.00 0.00 0.00 95 1010.9
20260509032546 73 192 4.0 5.0 0.00 0.00 0.00 95 1010.9
20260509032033 73 182 3.0 5.0 0.00 0.00 0.00 95 1010.9
20260509031521 73 176 3.0 5.0 0.00 0.00 0.00 95 1010.9
20260509031028 73 170 3.0 4.0 0.00 0.00 0.00 95 1010.9
20260509030516 73 176 3.0 5.0 0.00 0.00 0.00 94 1010.9
20260509030023 73 179 4.0 6.0 0.00 0.00 0.00 94 1010.8
20260509025529 74 175 3.0 5.0 0.00 0.00 0.00 93 1010.8
20260509025018 74 166 5.0 7.0 0.00 0.00 0.00 93 1010.7
20260509024545 74 177 4.0 6.0 0.00 0.00 0.00 93 1010.7
20260509024031 74 132 3.0 5.0 0.00 0.00 0.00 92 1010.7
20260509023519 74 159 3.0 5.0 0.00 0.00 0.00 92 1010.6
20260509023026 74 150 4.0 5.0 0.00 0.00 0.00 92 1010.6
20260509022532 74 170 4.0 6.0 0.00 0.00 0.00 92 1010.4
20260509022021 74 173 3.0 4.0 0.00 0.00 0.00 91 1010.3
20260509021527 75 158 3.0 5.0 0.00 0.00 0.00 91 1010.2
20260509021016 75 167 2.0 4.0 0.00 0.00 0.00 90 1010.2
20260509020523 75 169 3.0 4.0 0.00 0.00 0.00 90 1010.2
20260509020029 75 159 4.0 6.0 0.00 0.00 0.00 90 1010.1
20260509015517 75 156 4.0 7.0 0.00 0.00 0.00 89 1010.1
20260509015024 76 183 5.0 6.0 0.00 0.00 0.00 89 1009.9
20260509014530 76 151 5.0 7.0 0.00 0.00 0.00 88 1009.8
20260509014019 76 155 4.0 6.0 0.00 0.00 0.00 88 1009.8
20260509013525 76 147 2.0 5.0 0.00 0.00 0.00 87 1009.8
20260509013032 76 196 4.0 7.0 0.00 0.00 0.00 87 1009.8
20260509012520 76 182 4.0 8.0 0.00 0.00 0.00 86 1009.7
20260509012027 77 170 5.0 7.0 0.00 0.00 0.00 86 1009.7
20260509011516 77 136 6.0 9.0 0.00 0.00 0.00 85 1009.7
20260509011022 77 135 6.0 8.0 0.00 0.00 0.00 85 1009.8
20260509010529 77 140 5.0 7.0 0.00 0.00 0.00 84 1009.8
20260509010017 77 160 4.0 5.0 0.00 0.00 0.00 84 1009.8
20260509005524 77 162 5.0 8.0 0.00 0.00 0.00 84 1009.8
20260509005030 77 155 5.0 7.0 0.00 0.00 0.00 84 1009.8
20260509004519 77 162 6.0 8.0 0.00 0.00 0.00 84 1009.8
20260509004025 77 164 5.0 8.0 0.00 0.00 0.00 84 1009.8
20260509003532 78 148 3.0 5.0 0.00 0.00 0.00 84 1009.8
20260509003020 78 159 4.0 7.0 0.00 0.00 0.00 83 1009.8
20260509002547 78 168 5.0 7.0 0.00 0.00 0.00 83 1009.8
20260509002033 78 178 5.0 6.0 0.00 0.00 0.00 83 1009.8
20260509001602 78 162 3.0 5.0 0.00 0.00 0.00 83 1009.9
20260509001028 78 152 4.0 8.0 0.00 0.00 0.00 83 1010.0
20260509000517 78 151 3.0 4.0 0.00 0.00 0.00 83 1010.0
20260509000043 78 166 4.0 6.0 0.00 0.00 0.00 83 1010.0
20260508235530 78 153 5.0 7.0 0.00 0.00 0.00 83 1010.0
20260508235018 78 181 4.0 6.0 0.00 0.00 0.00 83 1010.0
20260508234524 78 170 5.0 6.0 0.00 0.00 0.00 82 1010.0
20260508234031 78 180 5.0 7.0 0.00 0.00 0.00 82 1010.0
20260508233520 78 154 5.0 6.0 0.00 0.00 0.00 81 1009.8
20260508233026 78 168 5.0 6.0 0.00 0.00 0.00 81 1009.8
20260508232532 79 168 4.0 7.0 0.00 0.00 0.00 81 1009.8
20260508232021 79 157 4.0 5.0 0.00 0.00 0.00 81 1009.8
20260508231528 79 167 5.0 6.0 0.00 0.00 0.00 81 1009.8
20260508231016 79 123 5.0 7.0 0.00 0.00 0.00 80 1009.8
20260508230522 79 111 5.0 6.0 0.00 0.00 0.00 80 1009.8
20260508230109 79 146 5.0 7.0 0.00 0.00 0.00 80 1009.8
20260508225537 79 153 5.0 8.0 0.00 0.00 0.00 80 1009.8
20260508225024 80 146 5.0 7.0 0.00 0.00 0.00 79 1009.8
20260508224531 80 156 4.0 6.0 0.00 0.00 0.00 79 1009.8
20260508224019 80 161 6.0 8.0 0.00 0.00 0.00 78 1009.8
20260508223525 80 160 5.0 7.0 0.00 0.00 0.00 78 1009.8
20260508223032 80 161 6.0 8.0 0.00 0.00 0.00 78 1009.8
20260508222520 81 132 4.0 5.0 0.00 0.00 0.00 77 1009.8
20260508222107 81 121 4.0 7.0 0.00 0.00 0.00 76 1009.8
20260508221515 81 99 5.0 6.0 0.00 0.00 0.00 77 1009.8
20260508221042 81 127 5.0 7.0 0.00 0.00 0.00 76 1009.8
20260508220528 81 146 6.0 9.0 0.00 0.00 0.00 77 1009.8
20260508220117 80 139 7.0 9.0 0.00 0.00 0.00 78 1010.1
20260508215543 80 145 6.0 9.0 0.00 0.00 0.00 77 1010.1
20260508215030 81 128 5.0 7.0 0.00 0.00 0.00 77 1010.1
20260508214518 81 116 5.0 7.0 0.00 0.00 0.00 76 1010.2
20260508214045 82 118 6.0 8.0 0.00 0.00 0.00 75 1010.2
20260508213551 82 147 5.0 7.0 0.00 0.00 0.00 75 1010.3
20260508213040 81 131 5.0 8.0 0.00 0.00 0.00 75 1010.3
20260508212526 80 122 5.0 7.0 0.00 0.00 0.00 76 1010.5
20260508212033 80 150 6.0 7.0 0.00 0.00 0.00 76 1010.5
20260508211521 80 147 6.0 8.0 0.00 0.00 0.00 76 1010.5
20260508211028 81 143 5.0 8.0 0.00 0.00 0.00 75 1010.6
20260508210536 82 109 6.0 9.0 0.00 0.00 0.00 74 1010.6
20260508210023 82 123 4.0 6.0 0.00 0.00 0.00 73 1010.8
20260508205549 81 124 3.0 5.0 0.00 0.00 0.00 73 1010.8
20260508205018 81 145 4.0 9.0 0.00 0.00 0.00 75 1011.0
20260508204524 80 144 4.0 6.0 0.00 0.00 0.00 76 1011.1
20260508204031 79 51 3.0 5.0 0.00 0.00 0.00 76 1011.1
20260508203519 79 76 4.0 8.0 0.00 0.00 0.00 76 1011.1
20260508203026 79 72 4.0 7.0 0.00 0.00 0.00 75 1011.1
20260508202532 80 156 6.0 9.0 0.00 0.00 0.00 75 1011.2
20260508202021 79 146 5.0 7.0 0.00 0.00 0.00 76 1011.2
20260508201547 79 115 5.0 8.0 0.00 0.00 0.00 76 1011.3
20260508201016 80 106 4.0 7.0 0.00 0.00 0.00 76 1011.5
20260508200522 80 95 4.0 7.0 0.00 0.00 0.00 75 1011.5
20260508200029 79 36 5.0 6.0 0.00 0.00 0.00 75 1011.7
20260508195537 79 44 5.0 7.0 0.00 0.00 0.00 76 1011.7
20260508195023 79 106 5.0 7.0 0.00 0.00 0.00 76 1011.8
20260508194530 79 115 4.0 6.0 0.00 0.00 0.00 76 1011.8
20260508194018 79 96 3.0 4.0 0.00 0.00 0.00 75 1011.9
20260508193525 79 148 4.0 6.0 0.00 0.00 0.00 76 1011.9
20260508193031 79 137 4.0 6.0 0.00 0.00 0.00 75 1011.9
20260508192520 79 121 4.0 6.0 0.00 0.00 0.00 75 1012.0
20260508192026 79 107 4.0 6.0 0.00 0.00 0.00 74 1012.0
20260508191533 80 183 3.0 5.0 0.00 0.00 0.00 74 1012.0
20260508191022 80 314 2.0 4.0 0.00 0.00 0.00 74 1012.0
20260508190528 79 170 2.0 6.0 0.00 0.00 0.00 74 1012.0
20260508190056 79 11 4.0 6.0 0.00 0.00 0.00 74 1012.4
20260508185523 79 95 3.0 4.0 0.00 0.00 0.00 74 1012.4
20260508185030 80 164 3.0 5.0 0.00 0.00 0.00 73 1012.3
20260508184518 80 35 4.0 7.0 0.00 0.00 0.00 72 1012.2
20260508184025 80 8 3.0 6.0 0.00 0.00 0.00 74 1012.3
20260508183551 79 65 4.0 7.0 0.00 0.00 0.00 74 1012.6
20260508183020 78 100 3.0 7.0 0.00 0.00 0.00 74 1012.6
20260508182526 78 73 4.0 6.0 0.00 0.00 0.00 74 1012.8
20260508182033 78 82 4.0 6.0 0.00 0.00 0.00 74 1012.9
20260508181702 78 57 4.0 6.0 0.00 0.00 0.00 74 1012.9
20260508181027 78 334 4.0 6.0 0.00 0.00 0.00 74 1012.9
20260508180516 77 340 5.0 6.0 0.00 0.00 0.00 74 1012.9
20260508180023 77 34 3.0 5.0 0.00 0.00 0.00 75 1013.1
20260508175529 77 52 3.0 5.0 0.00 0.00 0.00 75 1013.1
20260508175017 77 311 3.0 5.0 0.00 0.00 0.00 74 1013.2
20260508174524 76 305 2.0 4.0 0.00 0.00 0.00 75 1013.3
20260508174031 76 319 3.0 6.0 0.00 0.00 0.00 76 1013.3
20260508173539 75 348 3.0 5.0 0.00 0.00 0.00 76 1013.4
20260508173025 75 350 3.0 5.0 0.00 0.00 0.00 76 1013.4
20260508172532 74 330 3.0 5.0 0.00 0.00 0.00 77 1013.4
20260508172020 73 321 3.0 4.0 0.00 0.00 0.00 79 1013.5
20260508171527 72 317 4.0 6.0 0.00 0.00 0.00 79 1013.5
20260508171015 73 330 4.0 7.0 0.00 0.00 0.00 79 1013.5
20260508170522 72 319 3.0 5.0 0.00 0.00 0.00 80 1013.5
20260508170029 72 7 4.0 6.0 0.00 0.00 0.00 79 1013.8
20260508165537 72 318 3.0 4.0 0.00 0.00 0.00 78 1013.8
20260508165043 72 321 4.0 5.0 0.00 0.00 0.00 78 1014.0
20260508164530 72 338 0.0 3.0 0.00 0.00 0.00 78 1014.1
20260508164038 72 318 1.0 3.0 0.00 0.00 0.00 79 1014.1
20260508163525 72 0.0 0.0 0.00 0.00 0.00 78 1014.3
20260508163031 72 165 1.0 2.0 0.00 0.00 0.00 77 1014.3
20260508162520 73 179 1.0 3.0 0.00 0.00 0.00 76 1014.2
20260508162026 73 135 3.0 4.0 0.00 0.00 0.00 75 1014.2
20260508161533 73 29 2.0 3.0 0.00 0.00 0.00 76 1014.3
20260508161041 73 348 2.0 3.0 0.00 0.00 0.00 75 1014.4
20260508160528 72 356 1.0 3.0 0.00 0.00 0.00 77 1014.4
20260508160016 72 113 0.0 2.0 0.00 0.00 0.00 78 1014.5
20260508155523 71 203 0.0 3.0 0.00 0.00 0.00 79 1014.5
20260508155029 70 223 3.0 5.0 0.00 0.00 0.00 80 1014.6
20260508154518 70 163 3.0 4.0 0.00 0.00 0.00 80 1014.6
20260508154025 69 169 1.0 2.0 0.00 0.00 0.00 80 1014.6
20260508153551 69 207 1.0 3.0 0.00 0.00 0.00 81 1014.7
20260508153039 69 132 2.0 4.0 0.00 0.00 0.00 81 1014.7
20260508152526 69 113 2.0 4.0 0.00 0.00 0.00 80 1014.5
20260508152032 69 145 3.0 4.0 0.00 0.00 0.00 81 1014.5
20260508151520 69 133 3.0 4.0 0.00 0.00 0.00 81 1014.5
20260508151027 69 196 2.0 3.0 0.00 0.00 0.00 81 1014.6
20260508150515 69 173 3.0 5.0 0.00 0.00 0.00 80 1014.6
20260508150022 69 159 1.0 3.0 0.00 0.00 0.00 80 1014.7
20260508145529 69 102 1.0 2.0 0.00 0.00 0.00 81 1014.7
20260508145037 68 38 2.0 3.0 0.00 0.00 0.00 81 1014.7
20260508144523 68 91 3.0 4.0 0.00 0.00 0.00 81 1014.7
20260508144030 67 122 4.0 5.0 0.00 0.00 0.00 82 1014.7
20260508143539 67 121 3.0 4.0 0.00 0.00 0.00 82 1014.5
20260508143025 67 155 3.0 4.0 0.00 0.00 0.00 82 1014.5
20260508142532 68 61 2.0 5.0 0.00 0.00 0.00 80 1014.6
20260508142020 68 47 3.0 4.0 0.00 0.00 0.00 80 1014.6
20260508141526 68 103 2.0 3.0 0.00 0.00 0.00 79 1014.6
20260508141033 67 147 2.0 4.0 0.00 0.00 0.00 81 1014.5
20260508140521 68 119 3.0 5.0 0.00 0.00 0.00 79 1014.5
20260508140028 68 13 2.0 4.0 0.00 0.00 0.00 80 1014.6
20260508135516 68 115 3.0 5.0 0.00 0.00 0.00 79 1014.6
20260508135023 69 118 4.0 6.0 0.00 0.00 0.00 78 1014.6
20260508134529 68 91 2.0 4.0 0.00 0.00 0.00 80 1014.6
20260508134018 66 31 3.0 4.0 0.00 0.00 0.00 82 1014.6
20260508133524 65 62 3.0 5.0 0.00 0.00 0.00 84 1014.7
20260508133031 64 2 5.0 6.0 0.00 0.00 0.00 86 1014.7
20260508132519 64 345 3.0 5.0 0.00 0.00 0.00 87 1015.1
20260508132026 63 338 1.0 3.0 0.00 0.00 0.00 88 1015.3
20260508131553 63 0.0 0.0 0.00 0.00 0.00 88 1015.1
20260508131041 62 0.0 0.0 0.00 0.00 0.00 88 1014.9
20260508130527 62 335 1.0 3.0 0.00 0.00 0.00 89 1014.9
20260508130015 62 341 2.0 3.0 0.00 0.00 0.00 89 1015.0
20260508125522 62 9 2.0 3.0 0.00 0.00 0.00 89 1015.0
20260508125029 61 6 1.0 3.0 0.00 0.00 0.00 90 1015.0
20260508124517 61 329 2.0 3.0 0.00 0.00 0.00 90 1014.9
20260508124044 61 353 2.0 3.0 0.00 0.00 0.00 90 1015.0
20260508123530 61 344 3.0 4.0 0.00 0.00 0.00 90 1015.3
20260508123020 61 40 3.0 4.0 0.00 0.00 0.00 90 1015.3
20260508122545 61 40 2.0 4.0 0.00 0.00 0.00 90 1015.3
20260508122032 61 25 2.0 3.0 0.00 0.00 0.00 90 1015.3
20260508121520 61 335 3.0 4.0 0.00 0.00 0.00 90 1015.3
20260508121027 61 33 2.0 3.0 0.00 0.00 0.00 90 1015.3
20260508120533 61 23 2.0 4.0 0.00 0.00 0.00 90 1015.3
20260508120023 61 7 2.0 3.0 0.00 0.00 0.00 90 1015.3
20260508115649 60 356 2.0 3.0 0.00 0.00 0.00 90 1015.3
20260508115016 60 33 2.0 4.0 0.00 0.00 0.00 90 1015.4
20260508114523 60 32 2.0 3.0 0.00 0.00 0.00 90 1015.5
20260508114029 60 51 2.0 4.0 0.00 0.00 0.00 90 1015.5
20260508113558 60 333 3.0 4.0 0.00 0.00 0.00 90 1015.8
20260508113024 60 353 3.0 5.0 0.00 0.00 0.00 90 1015.8
20260508112531 60 336 3.0 5.0 0.00 0.00 0.00 90 1015.8
20260508112019 60 353 4.0 5.0 0.00 0.00 0.00 90 1015.8
20260508111526 60 320 2.0 4.0 0.00 0.00 0.00 90 1015.6
20260508111032 60 322 2.0 5.0 0.00 0.00 0.00 90 1015.3
20260508110521 60 333 4.0 6.0 0.00 0.00 0.00 90 1015.3
20260508110027 60 355 5.0 6.0 0.00 0.00 0.00 90 1015.0
20260508105516 60 346 5.0 7.0 0.00 0.00 0.00 90 1015.0
20260508105022 60 337 5.0 7.0 0.00 0.00 0.00 90 1015.0
20260508104549 60 346 6.0 7.0 0.00 0.00 0.00 90 1015.0
20260508104017 60 349 5.0 7.0 0.00 0.00 0.00 90 1015.1
20260508103544 60 335 5.0 7.0 0.00 0.00 0.00 90 1015.5
20260508103030 61 353 5.0 6.0 0.00 0.00 0.00 90 1015.5
20260508102518 61 343 4.0 7.0 0.00 0.00 0.00 90 1015.6
20260508102045 61 329 4.0 6.0 0.00 0.00 0.00 90 1015.6
20260508101531 61 322 3.0 4.0 0.00 0.00 0.00 90 1015.8
20260508101020 61 330 4.0 6.0 0.00 0.00 0.00 90 1016.0
20260508100527 61 323 4.0 6.0 0.00 0.00 0.00 89 1016.0
20260508100033 61 340 4.0 6.0 0.00 0.00 0.00 88 1016.0
20260508095521 61 333 4.0 5.0 0.00 0.00 0.00 88 1016.0
20260508095028 61 341 4.0 6.0 0.00 0.00 0.00 88 1015.9
20260508094516 61 322 4.0 5.0 0.00 0.00 0.00 88 1015.8
20260508094023 61 352 4.0 6.0 0.00 0.00 0.00 88 1015.8
20260508093529 61 335 3.0 5.0 0.00 0.00 0.00 88 1015.8
20260508093017 61 349 4.0 5.0 0.00 0.00 0.00 88 1015.8
20260508092524 61 339 3.0 4.0 0.00 0.00 0.00 88 1015.6
20260508092031 61 352 3.0 4.0 0.00 0.00 0.00 88 1015.5